Welcome to the New NWS' Forecast!
Most changes are behind the scenes, but click here for differences you might notice.
Latest weather observations around

Bullhead City, Laughlin/Bullhead International Airport (KIFP)

Using English Units (Switch to International System of Units)
Date/ Time (MST) Wind (mph) Vis. (mi) Weather Sky Cond. Temp (°F) Rel. Humidity Wind Chill (°F) Heat Index (°F) Pressure Precip. (in)
Air Dwpt 6 hour Altimeter (inHg) Sea level (inHg) 1 hr 3 hr 6 hr
Max Min
Nov 22 03:15   10 Clear CLR 72 16     12%   69 30.11        
Nov 22 02:55   10 Clear CLR 72 16     12%   69 30.11        
Nov 22 02:35 NNE 24 10 Clear and Windy CLR 72 16     12%   69 30.12        
Nov 22 02:15 NNE 22 10 Clear and Windy CLR 72 18     13%   69 30.12        
Nov 22 01:55   10 Clear CLR 72 16     12%   69 30.11        
Nov 22 01:35   10 Clear CLR 72 14     11%   69 30.11        
Nov 22 01:15 NNE 22 10 Clear and Windy CLR 72 14     11%   69 30.12        
Nov 22 00:55 NNE 20 10 Clear and Windy CLR 72 14     11%   69 30.12        
Nov 22 00:35 NNE 23 10 Clear and Windy CLR 72 14     11%   69 30.12        
Nov 22 00:15 NNE 24 10 Clear and Windy CLR 73 12     9%   71 30.12        
Nov 21 23:55   10 Clear CLR 73 12     9%   71 30.11        
Nov 21 23:35 NNE 23 10 Clear and Windy CLR 73        %     30.11        
Nov 21 23:15 NNE 24 10 Clear and Windy CLR 73        %     30.11        
Nov 21 22:55 NNE 22 10 Clear and Windy CLR 73        %     30.11        
Nov 21 22:35 NNE 23 10 Clear and Windy CLR 73 12     9%   71 30.11        
Nov 21 22:15   10 Clear CLR 73 14     10%   71 30.11        
Nov 21 21:55 NNE 24 10 Clear and Windy CLR 73 12     9%   71 30.11        
Nov 21 21:35 NNE 22 10 Clear and Windy CLR 73 12     9%   71 30.11        
Nov 21 21:15 NNE 20 10 Clear and Windy CLR 73 12     9%   71 30.11        
Nov 21 20:55 N 18 10 Clear CLR 73        %     30.11        
Nov 21 20:35 NNE 20 10 Clear and Windy CLR 73 12     9%   71 30.1        
Nov 21 20:15 N 21 10 Clear and Windy CLR 73 12     9%   71 30.1        
Nov 21 19:55 NNE 20 10 Clear and Windy CLR 73 12     9%   71 30.1        
Nov 21 19:35 N 18 10 Clear CLR 75        %     30.1        
Nov 21 19:15 NNE 18 10 Clear CLR 73 14     10%   71 30.1        
Nov 21 18:55 NE 9 10 Clear CLR 73 14     10%   71 30.11        
Nov 21 18:35 NNE 13 10 Clear CLR 75 14     10%   73 30.1        
Nov 21 18:15 NNE 15 10 Clear CLR 75 14     10%   73 30.09        
Nov 21 17:55 NNE 18 10 Clear CLR 75 14     10%   73 30.09        
Nov 21 17:35 NNE 18 10 Clear CLR 75 12     9%   73 30.09        
Nov 21 17:15 N 18 10 Clear CLR 77 12     8%   75 30.09        
Nov 21 16:55 N 18 10 Clear CLR 77 10     8%   75 30.09        
Nov 21 16:35 N 22 10 Clear and Windy CLR 77 10     8%   75 30.08        
Nov 21 16:15 N 24 10 Clear and Windy CLR 77        %     30.08        
Nov 21 15:55 N 25 10 Clear and Windy CLR 79 10     7%   77 30.08        
Nov 21 15:35   10 Clear CLR 79 10     7%   77 30.07        
Nov 21 15:15 N 22 10 Clear and Windy CLR 79 9     7%   77 30.08        
Nov 21 14:55   10 Clear CLR 77 9     7%   75 30.08        
Nov 21 14:35 N 24 10 Clear and Windy CLR 79 9     7%   77 30.08        
Nov 21 14:15   10 Clear CLR 77 7     7%   75 30.08        
Nov 21 13:55 N 23 10 Clear and Windy CLR 77 7     7%   75 30.1        
Nov 21 13:35 N 22 10 Clear and Windy CLR 77 9     7%   75 30.11        
Nov 21 13:15 N 20 10 Clear and Windy CLR 77 9     7%   75 30.12        
Nov 21 12:55 N 22 10 Clear and Windy CLR 75 9     8%   73 30.13        
Nov 21 12:35   10 Clear CLR 75 9     8%   73 30.14        
Nov 21 12:15   10 Clear CLR 73 9     8%   71 30.14        
Nov 21 11:55 N 23 10 Clear and Windy CLR 73 10     9%   71 30.15        
Nov 21 11:35 N 21 10 Clear and Windy CLR 72 10     9%   69 30.16        
Nov 21 11:15 NNE 26 10 Clear and Breezy CLR 70 12     11%     30.16        
Nov 21 10:55 NNE 24 10 Clear and Windy CLR 70 12     11%     30.16        
Nov 21 10:35 NNE 24 10 Clear and Windy CLR 70        %     30.17        
Nov 21 10:15   10 Clear CLR 68 9     10%     30.17        
Nov 21 09:55   10 Clear CLR 68 9     10%     30.17        
Nov 21 09:35 N 21 10 Clear and Windy CLR 66 12     12%     30.17        
Nov 21 09:15 N 23 10 Clear and Windy CLR 64 14     14%     30.17        
Nov 21 08:55 N 20 10 Clear and Windy CLR 64 16     15%     30.17        
Nov 21 08:35   10 Clear CLR 63 14     15%     30.16        
Nov 21 08:15   10 Clear CLR 63 14     15%     30.15        
Nov 21 07:55   10 Clear CLR 63 14     15%     30.14        
Nov 21 07:35 N 18 10 Clear CLR 63 14     15%     30.15        
Nov 21 07:15 N 14 10 Clear CLR 63 12     14%     30.14        
Nov 21 06:55 N 14 10 Clear CLR 63 12     14%     30.13        
Nov 21 06:35 N 14 10 Clear CLR 63 14     15%     30.13        
Nov 21 06:15 N 14 10 Clear CLR 63 14     15%     30.12        
Nov 21 05:55 N 9 10 Clear CLR 63 12     14%     30.12        
Nov 21 05:35 N 9 10 Clear CLR 63 12     14%     30.12        
Nov 21 05:15 N 16 10 Clear CLR 63 14     15%     30.11        
Nov 21 04:55 NNE 18 10 Clear CLR 63 12     14%     30.1        
Nov 21 04:35 NNE 17 10 Clear CLR 63 10     13%     30.1        
Nov 21 04:15 NNE 13 10 Clear CLR 63 10     13%     30.1        
Nov 21 03:55 NNE 15 10 Clear CLR 63 12     14%     30.1        
Nov 21 03:35 NNE 14 10 Clear CLR 63 12     14%     30.09        
Nov 21 03:15 NNE 20 10 Clear and Windy CLR 64 10     12%     30.09        
Nov 21 02:55 NNE 16 10 Clear CLR 64 10     12%     30.1        
Nov 21 02:35 NNE 14 10 Clear CLR 64 12     13%     30.1        
Nov 21 02:15 NE 15 10 Clear CLR 63 12     14%     30.08        
Nov 21 01:55 NNE 8 10 Clear CLR 63 12     14%     30.1        
Nov 21 01:35 NNE 7 10 Clear CLR 63 10     13%     30.1        
Nov 21 01:15 NNE 8 10 Clear CLR 64 10     12%     30.1        
Nov 21 00:55 NNE 10 10 Clear CLR 64 10     12%     30.09        
Nov 21 00:35 N 13 10 Clear CLR 64        %     30.09        
Nov 21 00:15 N 6 10 Clear CLR 61 23     23%     30.09        
Nov 20 23:55 NNW 7 10 Clear CLR 61        %     30.09        
Nov 20 23:35 NNW 8 10 Clear CLR 63 16     16%     30.09        
Nov 20 23:15 N 13 10 Clear CLR 64 10     12%     30.09        
Nov 20 22:55 NNE 10 10 Clear CLR 64 10     12%     30.09        
Nov 20 22:35 NNE 13 10 Clear CLR 64 9     11%     30.09        
Nov 20 22:15 NNE 10 10 Clear CLR 64 9     11%     30.09        
Nov 20 21:55 NNE 9 10 Clear CLR 64 9     11%     30.09        
Nov 20 21:35 N 8 10 Clear CLR 66        %     30.09        
Nov 20 21:15 N 10 10 Clear CLR 66        %     30.09        
Nov 20 20:55 N 9 10 Clear CLR 66 10     11%     30.07        
Nov 20 20:35 NNE 11 10 Clear CLR 66 10     11%     30.06        
Nov 20 20:15 NNE 13 10 Clear CLR 66 10     11%     30.05        
Nov 20 19:55 NNE 9 10 Clear CLR 66 10     11%     30.04        
Nov 20 19:35 NNE 6 10 Clear CLR 66 9     10%     30.04        
Nov 20 19:15 NNE 5 10 Clear CLR 66 9     10%     30.03        
Nov 20 18:55 Calm 10 Clear CLR 66 10     11%     30.02        
Nov 20 18:35 NNW 3 10 Clear CLR 68 7     9%     30.02        
Nov 20 18:15 NNE 7 10 Clear CLR 68        %     30.01        
Nov 20 17:55 NNE 9 10 Clear CLR 68        %     30.01        
Nov 20 17:35 NNE 8 10 Clear CLR 70        %     30.02        
Nov 20 17:15 NNE 11 10 Clear CLR 70        %     30.02        
Nov 20 16:55 NNE 15 10 Clear CLR 70        %     30.02        
Nov 20 16:35 N 14 10 Clear CLR 72        %     30.02        
Nov 20 16:15 N 15 10 Clear CLR 72        %     30.02        
Nov 20 15:55 N 15 10 Clear CLR 72        %     30.02        
Nov 20 15:35 N 14 10 Clear CLR 72        %     30.01        
Nov 20 15:15 N 14 10 Clear CLR 72        %     30        
Nov 20 14:55 NNW 11 10 Clear CLR 72        %     29.99        
Nov 20 14:35 N 13 10 Clear CLR 72        %     29.99        
Nov 20 14:15 N 16 10 Clear CLR 72        %     30        
Nov 20 13:55 NNW 14 10 Clear CLR 70 10     10%     30.02        
Nov 20 13:35 N 13 10 Clear CLR 70        %     30.03        
Nov 20 13:15 N 11 10 Clear CLR 68        %     30.04        
Nov 20 12:55 N 11 10 Clear CLR 68        %     30.06        
Nov 20 12:35 N 14 10 Clear CLR 68        %     30.06        
Nov 20 12:15 N 13 10 Clear CLR 66        %     30.08        
Nov 20 11:55 NNW 11 10 Clear CLR 64 14     14%     30.08        
Nov 20 11:35 Calm 10 Clear CLR 63 21     20%     30.09        
Nov 20 11:15 Calm 10 Clear CLR 61 23     23%     30.09        
Nov 20 10:55 Calm 10 Clear CLR 57 23     26%     30.1        
Nov 20 10:35 Calm 10 Clear CLR 55 19     24%     30.09        
Nov 20 10:15 Calm 10 Clear CLR 54 19     26%     30.11        
Nov 20 09:55 Calm 10 Clear CLR 54 18     24%     30.1        
Nov 20 09:35 Calm 10 Clear CLR 52 18     26%     30.09        
Nov 20 09:15 Calm 10 Clear CLR 50 18     27%     30.09        
Nov 20 08:55 Calm 10 Clear CLR 50 18     27%     30.09        
Nov 20 08:35 Calm 10 Clear CLR 48 19     32%     30.09        
Nov 20 08:15 Calm 10 Clear CLR 46 19     34%     30.08        
Nov 20 07:55 Calm 10 Clear CLR 46 19     34%     30.08        
Nov 20 07:35 Calm 10 Clear CLR 46 21     37%     30.07        
Nov 20 07:15 S 5 10 Clear CLR 46 21     37% 44   30.07        
Nov 20 06:55 Calm 10 Clear CLR 46 23     39%     30.07        
Nov 20 06:35 Calm 10 Clear CLR 46 23     39%     30.06        
Nov 20 06:15 Calm 10 Clear CLR 46 21     37%     30.05        
Nov 20 05:55 Calm 10 Clear CLR 46 19     34%     30.05        
Nov 20 05:35 Calm 10 Clear CLR 48 19     32%     30.04        
Nov 20 05:15 Calm 10 Clear CLR 48 21     34%     30.04        
Nov 20 04:55 Calm 10 Clear CLR 48 23     37%     30.03        
Nov 20 04:35 Calm 10 Clear CLR 48 25     40%     30.04        
Nov 20 04:15 ENE 3 10 Clear CLR 50        % 49   30.04        
Nov 20 03:55 E 3 10 Clear CLR 48 25     40% 47   30.05        
Nov 20 03:35 Calm 10 Clear CLR 50 25     37%     30.05        
Nov 20 03:15 Calm 10 Clear CLR 50 25     37%     30.03        
Nov 20 02:55 Calm 10 Clear CLR 52 25     35%     30.04        
Nov 20 02:35 Calm 10 Clear CLR 54        %     30.04        
Nov 20 02:15 NNE 5 10 Clear CLR 52 23     32%     30.03        
Nov 20 01:55 NE 5 10 Clear CLR 54        %     30.04        
Nov 20 01:35 Calm 10 Clear CLR 54        %     30.05        
Nov 20 01:15 Calm 10 Clear CLR 54        %     30.04        
Nov 20 00:55 Calm 10 Clear CLR 55        %     30.04        
Nov 20 00:35 Calm 10 Clear CLR 54        %     30.05        
Nov 20 00:15 N 6 10 Clear CLR 55        %     30.05        
Nov 19 23:55 NNE 6 10 Clear CLR 55        %     30.05        
Nov 19 23:35 NNW 5 10 Clear CLR 57        %     30.05        
Nov 19 23:15 N 6 10 Clear CLR 57        %     30.05        
Nov 19 22:55 N 7 10 Clear CLR 59 23     25%     30.05        
Nov 19 22:35 Calm 10 Clear CLR 59 16     18%     30.05        
Nov 19 22:15 Calm 10 Clear CLR 59 16     18%     30.05        
Nov 19 21:55 N 5 10 Clear CLR 61 9     12%     30.05        
Nov 19 21:35 NNE 5 10 Clear CLR 63 9     12%     30.05        
Nov 19 21:15 N 7 10 Clear CLR 63 9     12%     30.04        
Nov 19 20:55 NNE 10 10 Clear CLR 64 9     11%     30.04        
Nov 19 20:35 NNE 11 10 Clear CLR 64 9     11%     30.04        
Nov 19 20:15 NNE 14 10 Clear CLR 64 9     11%     30.03        
Nov 19 19:55 NNE 16 10 Clear CLR 64 9     11%     30.02        
Nov 19 19:35 NNE 10 10 Clear CLR 64 10     12%     30.03        
Nov 19 19:15 NNE 14 10 Clear CLR 66 10     11%     30.02        
Nov 19 18:55 NNE 14 10 Clear CLR 66 14     13%     30.02        
Nov 19 18:35 NNE 14 10 Clear CLR 66 12     12%     30.01        
Nov 19 18:15 NNE 14 10 Clear CLR 66 9     10%     30.01        
Nov 19 17:55 NNE 14 10 Clear CLR 66 7     9%     30        
Nov 19 17:35 N 17 10 Clear CLR 68 7     9%     30.01        
Nov 19 17:15 N 17 10 Clear CLR 68 7     9%     30.01        
Nov 19 16:55 N 16 10 Clear CLR 70 7     8%     30.01        
Nov 19 16:35 N 17 10 Clear CLR 70 5     8%     30.01        
Nov 19 16:15 N 18 10 Clear CLR 70 5     8%     30        
Nov 19 15:55 N 17 10 Clear CLR 70 5     8%     30        
Nov 19 15:35 N 22 10 Clear and Windy CLR 70 7     8%     30        
Nov 19 15:15 N 22 10 Clear and Windy CLR 70        %     30.01        
Nov 19 14:55 N 21 10 Clear and Windy CLR 70 7     8%     30.01        
Nov 19 14:35 N 21 10 Clear and Windy CLR 70 9     9%     30.02        
Nov 19 14:15 N 21 10 Clear and Windy CLR 70 10     10%     30.04        
Nov 19 13:55 N 23 10 Clear and Windy CLR 68 10     10%     30.04        
Nov 19 13:35 N 21 10 Clear and Windy CLR 68 10     10%     30.06        
Nov 19 13:15 N 22 10 Clear and Windy CLR 66 10     11%     30.07        
Nov 19 12:55   10 Clear CLR 66 9     10%     30.08        
Nov 19 12:35   10 Clear CLR 66 9     10%     30.08        
Nov 19 12:15 N 23 10 Clear and Windy CLR 66 10     11%     30.11        
Nov 19 11:55 N 24 10 Clear and Windy CLR 64 10     12%     30.12        
Nov 19 11:35   10 Clear CLR 64 10     12%     30.14        
Nov 19 11:15 N 21 10 Clear and Windy CLR 64 12     13%     30.15        
Nov 19 10:55 N 23 10 Clear and Windy CLR 63 12     14%     30.15        
Nov 19 10:35   10 Clear CLR 61 16     17%     30.16        
Nov 19 10:15 N 23 10 Clear and Windy CLR 61 16     17%     30.17        
Nov 19 09:55 N 22 10 Clear and Windy CLR 59 16     18%     30.16        
Nov 19 09:35 N 17 10 Clear CLR 59 19     21%     30.17        
Nov 19 09:15   10 Clear CLR 57 18     21%     30.16        
Nov 19 08:55 NNE 23 10 Clear and Windy CLR 57 18     21%     30.16        
Nov 19 08:35   10 Clear CLR 55 19     24%     30.16        
Nov 19 08:15   10 Clear CLR 55 19     24%     30.15        
Nov 19 07:55   10 Clear CLR 55 19     24%     30.14        
Nov 19 07:35 N 20 10 Clear and Windy CLR 55 18     22%     30.14        
Nov 19 07:15 NNE 22 10 Clear and Windy CLR 55 18     22%     30.13        
Nov 19 06:55 NNE 21 10 Clear and Windy CLR 55 16     21%     30.13        
Nov 19 06:35 NNE 24 10 Clear and Windy CLR 55 16     21%     30.11        
Nov 19 06:15 NNE 22 10 Clear and Windy CLR 55 18     22%     30.12        
Nov 19 05:55 NNE 23 10 Clear and Windy CLR 55 18     22%     30.12        
Nov 19 05:35 NNE 20 10 Clear and Windy CLR 55 19     24%     30.12        
Nov 19 05:15 NNE 21 10 Clear and Windy CLR 57 18     21%     30.12        
Nov 19 04:55 NNE 23 10 Clear and Windy CLR 57 18     21%     30.12        
Nov 19 04:35 N 20 10 Clear and Windy CLR 57 18     21%     30.12        
Nov 19 04:15 NNE 23 10 Clear and Windy CLR 57 16     19%     30.12        
Nov 19 03:55 NNE 22 10 Clear and Windy CLR 59 12     16%     30.12        
Nov 19 03:35   10 Clear CLR 59 10     14%     30.12        
Nov 19 03:15 NNE 21 10 Clear and Windy CLR 59 12     16%     30.13        
Nov 19 02:55 NNE 17 10 Clear CLR 59 12     16%     30.14        
Jun 12 04:55 Calm 10 Clear CLR 68 30     24%     29.85        
Jun 11 22:55 SSW 14 10 Clear CLR 77 39     26%   76 29.71        
Jun 11 20:35 SSE 24 10 Clear and Windy CLR 88        %     29.6        
Jun 11 18:55   10 Clear CLR 93 28     10%   88 29.57        
Jun 11 11:15 S 16 10 Clear CLR 90        %     29.69        
Jun 11 10:35 S 21 10 Clear and Windy CLR 88 32     14%   84 29.69        
Jun 11 04:35 S 11 10 Clear CLR 79 39     24%   78 29.62        
Jun 11 01:35 S 15 10 Clear CLR 86 37     18%   83 29.58        
Jun 10 18:35   10 Clear CLR 97        %     29.53        
Jun 10 17:15 S 20 10 Clear and Windy CLR 99 36     11%   93 29.55        
Jun 10 16:55 S 18 10 Clear CLR 99 36     11%   93 29.56        
Jun 10 15:35 SSE 18 10 Clear CLR 99 34     10%   93          
Notice The following observation data may not be complete
Jun 10 14:55   10 Clear CLR          %              
Jun 10 05:35 SSE 10 10 Clear CLR 82 46     28%   81 29.67        
Jun 09 20:55   10 Clear CLR 99        %     29.57        
Jun 09 10:35 SSW 11 10 Clear CLR 95 28     9%   89 29.76        
Jun 09 04:55 Calm 10 Clear CLR 81 30     16%   79 29.75        
Jun 09 02:55 SSE 6 10 Clear CLR 82 27     13%   80 29.74        
Jun 08 21:35   10 Clear CLR 97 32     10%   91 29.69        
Jun 08 17:35 SSE 16 10 Clear CLR 104 30     8%   97 29.68        
Jun 07 18:35 S 17 10 Clear CLR 102 23     6%   95 29.7        
Jun 07 16:35 S 15 10 Clear CLR 104 19     5%   96          
Jun 07 15:55 S 21 10 Clear and Windy CLR 104 18     5%   96 29.75        
Jun 07 10:15 S 18 10 Clear CLR 93 32     11%   88 29.85        
Jun 06 12:55 SSW 16 10 Partly Cloudy SCT095 104 36     10%   98 29.79        
Jun 05 18:15 SSW 13 10 Clear CLR 108 34     8%   101          
Jun 05 16:15 SSW 21 10 Clear and Windy CLR 109 32     7%   102 29.66        
Jun 05 15:15   10 Clear CLR 108 36     9%   101          
Notice The following observation data may not be complete
Jun 05 12:55   10 Clear CLR          %